TimeEDT,TemperatureF,Dew PointF,Humidity,Sea Level PressureIn,VisibilityMPH,Wind Direction,Wind SpeedMPH,Gust SpeedMPH,PrecipitationIn,Events,Conditions,WindDirDegrees,DateUTC
12:56 AM,66.9,60.1,79,29.97,10.0,SW,10.4,-,N/A,,Clear,230,2013-05-16 04:56:00
1:56 AM,66.0,60.1,81,29.97,10.0,WSW,6.9,-,N/A,,Clear,240,2013-05-16 05:56:00
2:56 AM,66.0,60.1,81,29.96,10.0,WSW,8.1,-,N/A,,Clear,240,2013-05-16 06:56:00
3:56 AM,66.0,59.0,78,29.95,10.0,WSW,6.9,-,N/A,,Clear,240,2013-05-16 07:56:00
4:56 AM,64.0,59.0,84,29.95,10.0,SW,4.6,-,N/A,,Clear,220,2013-05-16 08:56:00
5:56 AM,64.0,59.0,84,29.96,10.0,SSW,3.5,-,N/A,,Clear,210,2013-05-16 09:56:00
6:56 AM,64.9,60.1,84,29.97,9.0,SW,4.6,-,N/A,,Clear,220,2013-05-16 10:56:00
7:56 AM,68.0,60.1,76,29.99,9.0,WSW,9.2,-,N/A,,Clear,240,2013-05-16 11:56:00
8:56 AM,73.0,61.0,66,29.99,9.0,WSW,6.9,-,N/A,,Partly Cloudy,240,2013-05-16 12:56:00
9:56 AM,75.9,62.1,62,30.00,9.0,WSW,8.1,-,N/A,,Partly Cloudy,250,2013-05-16 13:56:00
10:56 AM,79.0,63.0,58,30.00,9.0,West,4.6,-,N/A,,Clear,280,2013-05-16 14:56:00
11:56 AM,82.9,62.1,49,30.00,10.0,West,10.4,-,N/A,,Clear,280,2013-05-16 15:56:00
12:56 PM,86.0,60.1,41,29.99,10.0,West,12.7,-,N/A,,Clear,280,2013-05-16 16:56:00
1:56 PM,88.0,59.0,37,29.97,10.0,West,10.4,-,N/A,,Clear,270,2013-05-16 17:56:00
2:56 PM,88.0,59.0,37,29.96,10.0,SW,10.4,-,N/A,,Clear,230,2013-05-16 18:56:00
3:56 PM,88.0,55.9,34,29.94,9.0,WSW,13.8,18.4,N/A,,Clear,250,2013-05-16 19:56:00
4:56 PM,88.0,55.9,34,29.94,10.0,WSW,13.8,24.2,N/A,,Clear,250,2013-05-16 20:56:00
5:56 PM,84.9,59.0,41,29.94,10.0,WSW,8.1,-,N/A,,Clear,240,2013-05-16 21:56:00
6:56 PM,82.0,57.9,44,29.95,10.0,WSW,5.8,-,N/A,,Clear,250,2013-05-16 22:56:00
7:56 PM,80.1,62.1,54,29.96,10.0,WSW,5.8,-,N/A,,Clear,240,2013-05-16 23:56:00
8:56 PM,75.9,62.1,62,29.98,10.0,SSW,5.8,-,N/A,,Clear,210,2013-05-17 00:56:00
9:56 PM,75.0,62.1,64,30.01,10.0,SW,8.1,-,N/A,,Clear,230,2013-05-17 01:56:00
10:56 PM,73.0,64.0,73,30.02,10.0,WSW,4.6,-,N/A,,Clear,240,2013-05-17 02:56:00
11:56 PM,73.0,64.0,73,30.01,10.0,WSW,4.6,-,N/A,,Clear,240,2013-05-17 03:56:00